No particular awareness of the weather is required.    There are no Weather-warnings


Meteo18 Weather Cam more information Meteo18 Weather Cam


Thunder radar more information blitzortung!


Rain radar more information rain snow radar


Visit our other weather sites:

Template documentation
and downloads

And another site



Weather Underground History page Text

Daily Summary for August 6, 2017 Units:  English    Metric   Both
« Previous Day
Next Day »
Daily Weekly Monthly Yearly Custom
  High: Low: Average:
Temperature: 74.8 °F 58.5 °F 65.7 °F
Dew Point: 53.6 °F 46.4 °F 49.6 °F
Humidity: 73 % 37 % 58 %
Wind Speed: 11 mph 0 mph 3.2 mph
Wind Gust: 15 mph - -
Wind:- - South
Pressure: 30.3 in 30.2 in -
Precipitation: 0 in    
Historical Graphs
 
 
Tabular Data for August 6, 2017
Time Temperature Dew Point Pressure Wind Wind Speed Wind Gust Humidity Rainfall Rate (Hourly)
00:02 63.1 °F 51.3 °F 30.2 in NW 2 mph 7 mph 65 % 0 in
00:12 63 °F 51.1 °F 30.2 in NW 4 mph 6 mph 65 % 0 in
00:17 62.8 °F 50.9 °F 30.2 in NW 2 mph 6 mph 65 % 0 in
00:27 62.6 °F 50.7 °F 30.2 in NW 3 mph 6 mph 65 % 0 in
00:32 62.4 °F 50.5 °F 30.2 in NW 2 mph 6 mph 65 % 0 in
00:42 62.2 °F 50.4 °F 30.2 in West 3 mph 6 mph 65 % 0 in
00:47 62.2 °F 50.4 °F 30.2 in NNW 3 mph 7 mph 65 % 0 in
00:52 62.2 °F 50.4 °F 30.2 in NW 3 mph 7 mph 65 % 0 in
00:57 62.2 °F 50.4 °F 30.2 in North 2 mph 7 mph 65 % 0 in
01:02 62.1 °F 50.5 °F 30.2 in Calm   6 mph 66 % 0 in
01:07 62.1 °F 50.5 °F 30.2 in NW 1 mph 5 mph 66 % 0 in
01:12 61.9 °F 50.4 °F 30.2 in NNW 1 mph 4 mph 66 % 0 in
01:17 61.9 °F 50.7 °F 30.2 in NW 1 mph 6 mph 67 % 0 in
01:22 61.9 °F 50.7 °F 30.2 in WNW 3 mph 6 mph 67 % 0 in
01:27 61.7 °F 51.1 °F 30.2 in NNW 4 mph 6 mph 68 % 0 in
01:32 61.5 °F 51.3 °F 30.2 in North 1 mph 7 mph 69 % 0 in
01:37 61.3 °F 51.1 °F 30.2 in West 2 mph 7 mph 69 % 0 in
01:42 61.3 °F 51.1 °F 30.2 in NW 1 mph 7 mph 69 % 0 in
01:47 61.2 °F 51.3 °F 30.2 in WNW 1 mph 7 mph 70 % 0 in
01:52 61 °F 51.1 °F 30.2 in NW 2 mph 5 mph 70 % 0 in
01:57 61 °F 51.1 °F 30.2 in NNW 3 mph 3 mph 70 % 0 in
02:02 61 °F 51.1 °F 30.2 in NW 3 mph 7 mph 70 % 0 in
02:07 60.8 °F 51.3 °F 30.2 in West 5 mph 7 mph 71 % 0 in
02:12 60.8 °F 51.3 °F 30.2 in NW 3 mph 7 mph 71 % 0 in
02:17 60.6 °F 50.7 °F 30.2 in North 3 mph 6 mph 70 % 0 in
02:22 60.6 °F 50.7 °F 30.2 in NNW 2 mph 6 mph 70 % 0 in
02:32 60.4 °F 50.5 °F 30.2 in NNW 2 mph 6 mph 70 % 0 in
02:37 60.3 °F 50.9 °F 30.2 in North 2 mph 5 mph 71 % 0 in
02:42 60.1 °F 50.7 °F 30.2 in NNW 2 mph 5 mph 71 % 0 in
02:47 59.9 °F 50.9 °F 30.2 in NNW 1 mph 4 mph 72 % 0 in
02:52 59.7 °F 50.7 °F 30.2 in NNW 2 mph 4 mph 72 % 0 in
02:57 59.7 °F 50.7 °F 30.2 in North 1 mph 4 mph 72 % 0 in
03:02 59.5 °F 50.5 °F 30.2 in NNW 4 mph 4 mph 72 % 0 in
03:07 59.7 °F 50.7 °F 30.2 in NNW 2 mph 6 mph 72 % 0 in
03:12 59.5 °F 50.9 °F 30.2 in North 1 mph 6 mph 73 % 0 in
03:17 59.5 °F 50.9 °F 30.2 in NW 1 mph 6 mph 73 % 0 in
03:22 59.5 °F 50.9 °F 30.2 in NE 2 mph 6 mph 73 % 0 in
03:27 59.7 °F 51.1 °F 30.2 in NNW 5 mph 6 mph 73 % 0 in
03:32 59.7 °F 50.7 °F 30.2 in NNE 5 mph 6 mph 72 % 0 in
03:37 59.7 °F 50.7 °F 30.2 in North 2 mph 6 mph 72 % 0 in
03:42 59.7 °F 50.7 °F 30.2 in Calm   7 mph 72 % 0 in
03:47 59.7 °F 50.7 °F 30.2 in North 2 mph 7 mph 72 % 0 in
03:52 59.5 °F 50.9 °F 30.2 in NNE 1 mph 7 mph 73 % 0 in
03:57 59.4 °F 50.7 °F 30.2 in North 1 mph 5 mph 73 % 0 in
04:02 59.4 °F 50.7 °F 30.2 in NNE 3 mph 6 mph 73 % 0 in
04:07 59.4 °F 50.7 °F 30.2 in NE 2 mph 6 mph 73 % 0 in
04:12 59.2 °F 50.5 °F 30.2 in North 2 mph 6 mph 73 % 0 in
04:17 59 °F 50.4 °F 30.2 in NNW 3 mph 6 mph 73 % 0 in
04:22 59.2 °F 50.2 °F 30.2 in NNW 5 mph 9 mph 72 % 0 in
04:27 59.2 °F 50.2 °F 30.2 in NNE 5 mph 9 mph 72 % 0 in
04:32 59 °F 50 °F 30.2 in North 4 mph 9 mph 72 % 0 in
04:37 58.8 °F 50.2 °F 30.2 in North 5 mph 8 mph 73 % 0 in
04:42 58.8 °F 50.2 °F 30.2 in NNW 2 mph 7 mph 73 % 0 in
04:47 58.8 °F 49.8 °F 30.2 in NW 2 mph 8 mph 72 % 0 in
04:52 58.6 °F 50 °F 30.2 in NNW 3 mph 8 mph 73 % 0 in
04:57 58.6 °F 50 °F 30.2 in North 3 mph 8 mph 73 % 0 in
05:02 58.6 °F 50 °F 30.2 in NNE 2 mph 9 mph 73 % 0 in
05:07 58.6 °F 50 °F 30.2 in NNW 5 mph 9 mph 73 % 0 in
05:12 58.6 °F 50 °F 30.2 in NNW 3 mph 9 mph 73 % 0 in
05:17 58.6 °F 49.6 °F 30.2 in NNW 6 mph 9 mph 72 % 0 in
05:22 58.8 °F 49.8 °F 30.2 in NW 4 mph 9 mph 72 % 0 in
05:32 58.6 °F 49.6 °F 30.2 in North 5 mph 9 mph 72 % 0 in
05:37 58.6 °F 49.6 °F 30.2 in NW 3 mph 9 mph 72 % 0 in
05:42 58.6 °F 49.6 °F 30.2 in NNW 4 mph 8 mph 72 % 0 in
05:47 58.6 °F 49.6 °F 30.2 in ENE 5 mph 9 mph 72 % 0 in
05:52 58.6 °F 49.6 °F 30.2 in NNW 3 mph 9 mph 72 % 0 in
05:57 58.6 °F 49.6 °F 30.2 in North 3 mph 9 mph 72 % 0 in
06:02 58.6 °F 49.6 °F 30.2 in NNE 5 mph 7 mph 72 % 0 in
06:07 58.6 °F 49.6 °F 30.2 in North 8 mph 8 mph 72 % 0 in
06:12 58.8 °F 49.5 °F 30.2 in NNE 5 mph 9 mph 71 % 0 in
06:17 58.6 °F 49.6 °F 30.2 in North 3 mph 9 mph 72 % 0 in
06:22 58.6 °F 49.6 °F 30.2 in North 2 mph 9 mph 72 % 0 in
06:37 58.6 °F 49.6 °F 30.2 in NNW 4 mph 8 mph 72 % 0 in
06:42 58.6 °F 49.3 °F 30.2 in NNE 3 mph 8 mph 71 % 0 in
06:47 58.6 °F 49.6 °F 30.2 in NNW 2 mph 8 mph 72 % 0 in
06:52 58.6 °F 49.6 °F 30.2 in NNW 6 mph 8 mph 72 % 0 in
06:57 58.5 °F 49.5 °F 30.2 in NNE 3 mph 9 mph 72 % 0 in
07:02 58.5 °F 49.5 °F 30.3 in NE 7 mph 9 mph 72 % 0 in
07:07 58.5 °F 49.5 °F 30.2 in NE 2 mph 9 mph 72 % 0 in
07:12 58.5 °F 49.5 °F 30.3 in NNE 4 mph 9 mph 72 % 0 in
07:17 58.5 °F 49.5 °F 30.2 in NE 4 mph 8 mph 72 % 0 in
07:22 58.6 °F 49.6 °F 30.3 in North 4 mph 8 mph 72 % 0 in
07:27 58.6 °F 49.6 °F 30.3 in NE 4 mph 9 mph 72 % 0 in
07:32 58.6 °F 50 °F 30.3 in North 4 mph 9 mph 73 % 0 in
07:37 58.8 °F 49.8 °F 30.3 in North 8 mph 9 mph 72 % 0 in
07:42 59.2 °F 50.2 °F 30.3 in NE 6 mph 9 mph 72 % 0 in
07:47 59.2 °F 50.2 °F 30.3 in North 7 mph 12 mph 72 % 0 in
07:52 59.7 °F 50.4 °F 30.3 in NE 7 mph 12 mph 71 % 0 in
07:57 59.9 °F 50.5 °F 30.3 in NNW 4 mph 12 mph 71 % 0 in
08:02 60.1 °F 50.2 °F 30.3 in North 6 mph 12 mph 70 % 0 in
08:12 59.9 °F 50.5 °F 30.3 in NNW 4 mph 12 mph 71 % 0 in
08:17 60.1 °F 50.7 °F 30.3 in NE 7 mph 11 mph 71 % 0 in
08:22 60.6 °F 51.1 °F 30.3 in North 4 mph 11 mph 71 % 0 in
08:27 61 °F 51.1 °F 30.3 in NE 3 mph 13 mph 70 % 0 in
08:32 60.6 °F 50.7 °F 30.3 in NNE 6 mph 13 mph 70 % 0 in
08:37 60.4 °F 51.1 °F 30.3 in North 4 mph 13 mph 71 % 0 in
08:42 60.6 °F 51.1 °F 30.3 in NE 4 mph 9 mph 71 % 0 in
08:47 60.8 °F 51.3 °F 30.3 in NNE 2 mph 10 mph 71 % 0 in
08:52 61.2 °F 51.6 °F 30.3 in NE 4 mph 10 mph 71 % 0 in
08:57 61.3 °F 51.8 °F 30.3 in NNW 3 mph 10 mph 71 % 0 in
09:02 61.9 °F 52 °F 30.3 in NE 5 mph 10 mph 70 % 0 in
09:07 62.2 °F 52 °F 30.3 in North 6 mph 10 mph 69 % 0 in
09:12 62.4 °F 52.2 °F 30.3 in NE 6 mph 14 mph 69 % 0 in
09:17 62.4 °F 51.8 °F 30.3 in NW 6 mph 14 mph 68 % 0 in
09:22 63 °F 52.2 °F 30.3 in NNE 10 mph 14 mph 68 % 0 in
09:32 63.1 °F 52 °F 30.3 in NNE 4 mph 12 mph 67 % 0 in
09:37 63.3 °F 52.2 °F 30.3 in NE 3 mph 12 mph 67 % 0 in
09:42 63.5 °F 52.3 °F 30.3 in NNE 11 mph 12 mph 67 % 0 in
09:47 63.3 °F 51.8 °F 30.3 in North 6 mph 12 mph 66 % 0 in
09:52 63.5 °F 52 °F 30.3 in NNE 7 mph 13 mph 66 % 0 in
09:57 63.9 °F 52.3 °F 30.3 in NNE 4 mph 13 mph 66 % 0 in
10:02 64.2 °F 51.8 °F 30.3 in NE 9 mph 12 mph 64 % 0 in
10:12 64.2 °F 52.2 °F 30.3 in NE 3 mph 13 mph 65 % 0 in
10:17 64.2 °F 52.2 °F 30.3 in ENE 3 mph 13 mph 65 % 0 in
10:22 64.2 °F 51.8 °F 30.3 in ENE 7 mph 12 mph 64 % 0 in
10:32 64.9 °F 52 °F 30.3 in ENE 4 mph 11 mph 63 % 0 in
10:37 64.9 °F 52 °F 30.3 in East 4 mph 11 mph 63 % 0 in
10:42 65.1 °F 51.8 °F 30.3 in NNW 7 mph 11 mph 62 % 0 in
10:47 65.1 °F 51.8 °F 30.3 in NNW 6 mph 11 mph 62 % 0 in
10:52 65.8 °F 52 °F 30.3 in NE 5 mph 11 mph 61 % 0 in
10:57 65.8 °F 52.5 °F 30.3 in NNW 4 mph 10 mph 62 % 0 in
11:02 66 °F 52.7 °F 30.3 in NNE 3 mph 10 mph 62 % 0 in
11:07 66.6 °F 53.6 °F 30.3 in North 6 mph 10 mph 63 % 0 in
11:12 66.6 °F 53.1 °F 30.3 in Calm   11 mph 62 % 0 in
11:22 66.6 °F 52.7 °F 30.3 in North 3 mph 11 mph 61 % 0 in
11:27 66.9 °F 52.5 °F 30.3 in NE 2 mph 9 mph 60 % 0 in
11:32 67.3 °F 52.5 °F 30.3 in North 3 mph 9 mph 59 % 0 in
11:37 67.8 °F 52 °F 30.3 in NE 4 mph 9 mph 57 % 0 in
11:42 68.2 °F 50.9 °F 30.3 in NNW 6 mph 14 mph 54 % 0 in
11:52 67.8 °F 51.1 °F 30.3 in NNW 8 mph 14 mph 55 % 0 in
11:57 68 °F 51.3 °F 30.3 in West 3 mph 10 mph 55 % 0 in
12:02 68.5 °F 50.7 °F 30.3 in North 5 mph 10 mph 53 % 0 in
12:07 68.4 °F 51.1 °F 30.3 in NE 4 mph 10 mph 54 % 0 in
12:12 68.5 °F 50.7 °F 30.3 in North 4 mph 10 mph 53 % 0 in
12:17 68.9 °F 51.6 °F 30.3 in WNW 4 mph 11 mph 54 % 0 in
12:22 69.1 °F 51.3 °F 30.3 in NNE 5 mph 11 mph 53 % 0 in
12:27 68.7 °F 50.9 °F 30.3 in NNE 4 mph 10 mph 53 % 0 in
12:32 68.9 °F 50.5 °F 30.3 in WSW 1 mph 10 mph 52 % 0 in
12:37 69.4 °F 50.5 °F 30.3 in NW 5 mph 10 mph 51 % 0 in
12:42 69.6 °F 51.3 °F 30.3 in Calm   15 mph 52 % 0 in
12:47 69.6 °F 50.2 °F 30.3 in ENE 9 mph 15 mph 50 % 0 in
12:52 69.8 °F 50.4 °F 30.3 in North 7 mph 15 mph 50 % 0 in
12:57 70.3 °F 50.9 °F 30.3 in NNW 2 mph 13 mph 50 % 0 in
13:02 70.5 °F 50.9 °F 30.3 in North 5 mph 11 mph 50 % 0 in
13:07 70 °F 50.5 °F 30.3 in NNE 8 mph 14 mph 50 % 0 in
13:12 69.6 °F 49.1 °F 30.3 in NNE 5 mph 14 mph 48 % 0 in
13:17 70 °F 49.5 °F 30.3 in West 1 mph 14 mph 48 % 0 in
13:22 70.5 °F 49.8 °F 30.3 in NW 2 mph 9 mph 48 % 0 in
13:27 70.7 °F 48.9 °F 30.3 in NNW 2 mph 9 mph 46 % 0 in
13:32 71.2 °F 49.5 °F 30.3 in NNE 6 mph 10 mph 46 % 0 in
13:37 70.9 °F 49.1 °F 30.3 in North 3 mph 10 mph 46 % 0 in
13:42 71.1 °F 49.3 °F 30.3 in ESE 1 mph 10 mph 46 % 0 in
13:47 72 °F 48.9 °F 30.3 in WSW 2 mph 9 mph 44 % 0 in
13:52 72 °F 49.5 °F 30.3 in WNW 2 mph 9 mph 45 % 0 in
13:57 71.8 °F 48 °F 30.3 in NW 2 mph 9 mph 43 % 0 in
14:02 71.6 °F 49.1 °F 30.3 in Calm   8 mph 45 % 0 in
14:07 72.3 °F 49.8 °F 30.3 in NE 3 mph 8 mph 45 % 0 in
14:12 72.7 °F 50.2 °F 30.3 in NNW 4 mph 8 mph 45 % 0 in
14:17 72.1 °F 49.1 °F 30.3 in North 5 mph 8 mph 44 % 0 in
14:22 71.8 °F 48 °F 30.3 in WSW 2 mph 8 mph 43 % 0 in
14:27 71.8 °F 48 °F 30.3 in NNW 1 mph 8 mph 43 % 0 in
14:32 72.1 °F 48.4 °F 30.3 in North 2 mph 8 mph 43 % 0 in
14:37 72.3 °F 49.1 °F 30.3 in Calm   8 mph 44 % 0 in
14:42 72.9 °F 48.4 °F 30.3 in East 4 mph 8 mph 42 % 0 in
14:47 72.7 °F 48.9 °F 30.3 in NE 5 mph 5 mph 43 % 0 in
14:52 72.9 °F 49.6 °F 30.3 in NNE 1 mph 9 mph 44 % 0 in
14:57 72.7 °F 48.2 °F 30.2 in NE 1 mph 9 mph 42 % 0 in
15:02 72.7 °F 48.9 °F 30.2 in Calm   9 mph 43 % 0 in
15:07 73.2 °F 48.7 °F 30.2 in NNE 4 mph 10 mph 42 % 0 in
15:12 73.2 °F 49.5 °F 30.2 in NNW 4 mph 10 mph 43 % 0 in
15:17 73.2 °F 48.7 °F 30.3 in WNW 2 mph 10 mph 42 % 0 in
15:22 73.2 °F 48 °F 30.2 in East 2 mph 9 mph 41 % 0 in
15:32 73 °F 48 °F 30.2 in NNW 3 mph 10 mph 41 % 0 in
15:37 73 °F 47.3 °F 30.2 in West 3 mph 11 mph 40 % 0 in
15:42 73.4 °F 48.9 °F 30.2 in NNW 3 mph 11 mph 42 % 0 in
15:47 74.1 °F 48.2 °F 30.2 in WNW 3 mph 8 mph 40 % 0 in
15:52 74.3 °F 47.7 °F 30.2 in Calm   8 mph 39 % 0 in
15:57 73.9 °F 48.7 °F 30.2 in Calm   8 mph 41 % 0 in
16:02 74.7 °F 49.5 °F 30.2 in North 6 mph 8 mph 41 % 0 in
16:07 74.1 °F 48.2 °F 30.2 in East 1 mph 10 mph 40 % 0 in
16:12 73.6 °F 47.8 °F 30.2 in NNW 1 mph 11 mph 40 % 0 in
16:17 73.6 °F 48.4 °F 30.2 in ENE 5 mph 11 mph 41 % 0 in
16:22 73.4 °F 47.7 °F 30.2 in NNE 5 mph 12 mph 40 % 0 in
16:32 73.6 °F 47.1 °F 30.2 in NNW 1 mph 12 mph 39 % 0 in
16:37 73.6 °F 47.1 °F 30.2 in NNE 3 mph 12 mph 39 % 0 in
16:42 73.8 °F 47.3 °F 30.2 in Calm   12 mph 39 % 0 in
16:47 74.1 °F 48.9 °F 30.2 in East 5 mph 11 mph 41 % 0 in
16:52 73.6 °F 47.8 °F 30.2 in ENE 2 mph 9 mph 40 % 0 in
17:02 74.3 °F 47.7 °F 30.2 in NNE 4 mph 11 mph 39 % 0 in
17:12 73.9 °F 47.5 °F 30.2 in NW 1 mph 11 mph 39 % 0 in
17:17 74.1 °F 46.9 °F 30.2 in NNE 3 mph 8 mph 38 % 0 in
17:22 74.5 °F 47.8 °F 30.2 in Calm   8 mph 39 % 0 in
17:27 74.8 °F 47.5 °F 30.2 in Calm   8 mph 38 % 0 in
17:32 74.8 °F 47.5 °F 30.2 in NNE 3 mph 8 mph 38 % 0 in
17:37 74.7 °F 46.6 °F 30.2 in NNE 7 mph 8 mph 37 % 0 in
17:42 74.1 °F 47.7 °F 30.2 in NW 1 mph 12 mph 39 % 0 in
17:47 73.9 °F 47.5 °F 30.2 in NE 5 mph 12 mph 39 % 0 in
17:52 73.9 °F 47.5 °F 30.2 in ESE 6 mph 12 mph 39 % 0 in
17:57 73.9 °F 47.5 °F 30.2 in East 6 mph 9 mph 39 % 0 in
18:02 73.9 °F 46.8 °F 30.2 in NE 6 mph 9 mph 38 % 0 in
18:07 73.8 °F 47.3 °F 30.2 in NNE 6 mph 9 mph 39 % 0 in
18:12 73.9 °F 47.5 °F 30.2 in ENE 5 mph 12 mph 39 % 0 in
18:17 73.8 °F 47.3 °F 30.2 in NNE 3 mph 12 mph 39 % 0 in
18:22 73.8 °F 47.3 °F 30.2 in East 3 mph 12 mph 39 % 0 in
18:27 73.8 °F 47.3 °F 30.2 in ENE 4 mph 10 mph 39 % 0 in
18:32 73.8 °F 47.3 °F 30.2 in ENE 4 mph 11 mph 39 % 0 in
18:37 73.6 °F 47.1 °F 30.2 in NNW 2 mph 12 mph 39 % 0 in
18:47 73.9 °F 47.5 °F 30.2 in NE 5 mph 10 mph 39 % 0 in
18:52 73.9 °F 47.5 °F 30.2 in ENE 5 mph 10 mph 39 % 0 in
18:57 73.6 °F 46.4 °F 30.2 in North 2 mph 10 mph 38 % 0 in
19:02 73.6 °F 46.4 °F 30.2 in ENE 2 mph 13 mph 38 % 0 in
19:07 73.4 °F 46.9 °F 30.2 in NE 4 mph 13 mph 39 % 0 in
19:12 73.2 °F 47.5 °F 30.2 in East 6 mph 11 mph 40 % 0 in
19:17 73.2 °F 48 °F 30.2 in ENE 5 mph 11 mph 41 % 0 in
19:27 73.2 °F 47.5 °F 30.2 in NE 2 mph 9 mph 40 % 0 in
19:32 73.2 °F 46.8 °F 30.2 in NE 9 mph 9 mph 39 % 0 in
19:37 73.2 °F 46.8 °F 30.2 in NE 7 mph 9 mph 39 % 0 in
19:42 73 °F 47.3 °F 30.2 in NE 1 mph 9 mph 40 % 0 in
19:47 73 °F 46.6 °F 30.2 in NE 5 mph 9 mph 39 % 0 in
19:52 72.9 °F 47.1 °F 30.2 in NNE 4 mph 9 mph 40 % 0 in
19:57 72.9 °F 46.4 °F 30.2 in NE 3 mph 8 mph 39 % 0 in
20:02 72.7 °F 46.9 °F 30.2 in ENE 3 mph 8 mph 40 % 0 in
20:07 72.5 °F 47.5 °F 30.2 in NE 2 mph 7 mph 41 % 0 in
20:12 72.3 °F 48 °F 30.2 in ENE 3 mph 6 mph 42 % 0 in
20:22 71.6 °F 47.8 °F 30.2 in ENE 3 mph 7 mph 43 % 0 in
20:27 71.4 °F 48.4 °F 30.2 in NE 3 mph 7 mph 44 % 0 in
20:32 71.2 °F 48.2 °F 30.2 in NE 3 mph 7 mph 44 % 0 in
20:37 71.2 °F 48.2 °F 30.2 in NE 2 mph 5 mph 44 % 0 in
20:42 71.1 °F 48 °F 30.2 in NE 5 mph 6 mph 44 % 0 in
20:47 70.7 °F 47.7 °F 30.2 in NNE 2 mph 6 mph 44 % 0 in
20:52 70.3 °F 48 °F 30.2 in NE 5 mph 7 mph 45 % 0 in
20:57 70 °F 48.2 °F 30.2 in NE 4 mph 7 mph 46 % 0 in
21:02 69.6 °F 48.6 °F 30.2 in NE 3 mph 7 mph 47 % 0 in
21:07 69.1 °F 48.6 °F 30.2 in NNE 2 mph 5 mph 48 % 0 in
21:12 68.5 °F 48.6 °F 30.2 in NE 2 mph 5 mph 49 % 0 in
21:17 67.8 °F 48.6 °F 30.2 in NE 1 mph 5 mph 50 % 0 in
21:22 67.5 °F 48.7 °F 30.2 in NE 2 mph 4 mph 51 % 0 in
21:27 66.9 °F 48.2 °F 30.2 in NNE 2 mph 3 mph 51 % 0 in
21:32 66.6 °F 48.4 °F 30.2 in NE 1 mph 4 mph 52 % 0 in
21:37 66.2 °F 48 °F 30.2 in Calm   4 mph 52 % 0 in
21:42 65.8 °F 48.2 °F 30.2 in North 1 mph 3 mph 53 % 0 in
21:47 65.7 °F 48 °F 30.2 in North 1 mph 2 mph 53 % 0 in
21:52 65.1 °F 48 °F 30.2 in NNW 1 mph 2 mph 54 % 0 in
21:57 64.8 °F 48.2 °F 30.2 in NNW 2 mph 2 mph 55 % 0 in
22:02 64.6 °F 48.6 °F 30.2 in Calm   3 mph 56 % 0 in
22:07 64.2 °F 48.2 °F 30.2 in Calm   3 mph 56 % 0 in
22:12 63.9 °F 48.4 °F 30.2 in Calm   3 mph 57 % 0 in
22:17 63.7 °F 48.2 °F 30.2 in Calm   3 mph 57 % 0 in
22:22 63.3 °F 48.4 °F 30.2 in Calm   3 mph 58 % 0 in
22:27 63 °F 48.4 °F 30.2 in Calm   3 mph 59 % 0 in
22:32 62.8 °F 48.2 °F 30.2 in Calm   2 mph 59 % 0 in
22:37 62.4 °F 48.4 °F 30.2 in Calm   1 mph 60 % 0 in
22:42 62.1 °F 48.4 °F 30.2 in Calm   1 mph 61 % 0 in
22:47 62.1 °F 48.4 °F 30.2 in Calm   2 mph 61 % 0 in
22:52 61.9 °F 48.2 °F 30.2 in Calm   2 mph 61 % 0 in
22:57 61.9 °F 48.2 °F 30.2 in NW 1 mph 2 mph 61 % 0 in
23:02 61.9 °F 48.2 °F 30.2 in Calm   3 mph 61 % 0 in
23:07 61.7 °F 48.2 °F 30.2 in NNW 1 mph 3 mph 61 % 0 in
23:12 61.5 °F 48.4 °F 30.2 in Calm   2 mph 62 % 0 in
23:17 61.3 °F 48.2 °F 30.2 in Calm   2 mph 62 % 0 in
23:22 61.2 °F 48.4 °F 30.2 in NNW 1 mph 2 mph 63 % 0 in
23:32 61.2 °F 48 °F 30.2 in North 2 mph 2 mph 62 % 0 in
23:37 61 °F 47.8 °F 30.2 in Calm   2 mph 62 % 0 in
23:42 61 °F 47.8 °F 30.2 in Calm   2 mph 62 % 0 in
23:47 60.6 °F 47.5 °F 30.2 in Calm   2 mph 62 % 0 in
23:52 60.4 °F 47.8 °F 30.2 in Calm   2 mph 63 % 0 in
23:57 60.1 °F 47.8 °F 30.2 in Calm   1 mph 64 % 0 in
Meteo18
Compliments of Weather Underground - 4 mb

Script developed by  Jim McMurry - jmcmurry@mwt.net Adapted for the template by  Wim van der Kuil - Leuven-Template.eu

You find our weather info also at:

European Weather Network

Weather Underground

Equipment we use:

Weather-station
Davis Vue

Weather-program
Meteohub

Weather-server
Raspberry PI 2 B+

Provider
1 and 1

Davis Vue

Meteohub

Raspberry PI 2 B+

1 and 1